www.pogodaiklimat.ru

Архив погоды в Нови-Саде (Сербия)

Время
(UTC), дата
19 10.06
20 10.06
21 10.06
22 10.06
23 10.06
00 11.06
01 11.06
02 11.06
03 11.06
04 11.06
05 11.06
06 11.06
07 11.06
08 11.06
09 11.06
10 11.06
11 11.06
12 11.06
13 11.06
14 11.06
15 11.06
16 11.06
17 11.06
18 11.06
19 11.06
20 11.06
21 11.06
22 11.06
23 11.06
00 12.06
01 12.06
02 12.06
03 12.06
04 12.06
05 12.06
06 12.06
07 12.06
08 12.06
09 12.06
10 12.06
11 12.06
12 12.06
13 12.06
14 12.06
15 12.06
16 12.06
17 12.06
18 12.06
19 12.06
20 12.06
21 12.06
22 12.06
23 12.06
00 13.06
01 13.06
02 13.06
03 13.06
04 13.06
05 13.06
06 13.06
07 13.06
08 13.06
09 13.06
10 13.06
11 13.06
12 13.06
14 13.06
15 13.06
16 13.06
17 13.06
18 13.06
19 13.06
20 13.06
21 13.06
22 13.06
23 13.06
00 14.06
01 14.06
02 14.06
03 14.06
04 14.06
05 14.06
06 14.06
07 14.06
08 14.06
09 14.06
10 14.06
11 14.06
12 14.06
13 14.06
14 14.06
15 14.06
16 14.06
17 14.06
18 14.06
19 14.06
20 14.06
21 14.06
22 14.06
23 14.06
00 15.06
01 15.06
02 15.06
03 15.06
04 15.06
05 15.06
06 15.06
07 15.06
08 15.06
09 15.06
10 15.06
11 15.06
12 15.06
13 15.06
14 15.06
15 15.06
16 15.06
17 15.06
18 15.06
19 15.06
20 15.06
21 15.06
22 15.06
23 15.06
00 16.06
01 16.06
02 16.06
03 16.06
04 16.06
05 16.06
06 16.06
07 16.06
08 16.06
09 16.06
10 16.06
11 16.06
12 16.06
13 16.06
14 16.06
15 16.06
16 16.06
17 16.06
18 16.06
19 16.06
20 16.06
21 16.06
22 16.06
23 16.06
00 17.06
01 17.06
02 17.06
03 17.06
04 17.06
05 17.06
06 17.06
07 17.06
08 17.06
09 17.06
10 17.06
11 17.06
12 17.06
13 17.06
14 17.06
15 17.06
16 17.06
17 17.06
18 17.06
Ветер
(напр.,м/с)
Видим. Явления Облачность Т
(С)
Тd
(С)
f
(%)
Тe
(С)
Тes
(С)
Комфортность P
(гПа)
Po
(гПа)
Тmin
(С)
Tmax
(С)
R
(мм)
R24
(мм)
S
(см)
СВ 3 20 км в посл. час гроза {дождь} 8/8 1000 м
[Cu Sc]
+26.8 +21.4 72 +34 +34 очень душно 1005.0 995.1
ЮЗ 1 20 км слаб. дождь 10/10 1000 м
[Cu Sc]
+20.9 +19.7 93 +27 +27 душно 1006.7 996.6
Ю 2 {11} 20 км слаб. дождь 10/10 1000 м
[Cu Sc]
+21.2 +20.3 95 +26 +26 душно 1006.7 996.6
ЮВ 2 20 км в посл. час дождь 10/10 1000 м
[Sc]
+21.4 +20.2 93 +27 +27 душно 1006.6 996.5
Ю 1 20 км дождь 10/10 1000 м
[Sc]
+20.1 +19.3 95 +25 +25 комфорт 1007.2 997.0
ЮЗ 1 {11} 20 км в посл. час дождь {гроза} 10/10 1000 м
[Sc]
+20.5 +19.6 95 +26 +26 душно 1007.2 997.0 13
штиль 0 20 км 4/4 1000 м
[Sc]
+20.4 +19.5 95 +24 +24 комфорт 1007.2 997.0
СЗ 1 20 км 3/3 1000 м
[Sc]
+19.6 +18.7 95 +23 +23 комфорт 1007.0 996.8
СЗ 2 15 км 1/1 1000 м
[Sc]
+19.0 +18.4 96 +21 +21 комфорт 1007.0 996.8
СЗ 1 15 км 1/0
[Ac trans]
+19.2 +18.6 96 +22 +23 комфорт 1007.5 997.3
С 3 15 км 3/0
[Ac trans]
+19.6 +18.2 92 +22 +24 комфорт 1008.1 997.9
СЗ 3 15 км 9/0
[Ac As]
+19.9 +17.9 88 +23 +25 комфорт 1008.5 998.3 +19.0 14 14.1
С 1 15 км в посл. час дождь 10/10 1000 м
[Cu Sc]
+20.4 +18.4 88 +25 +25 комфорт 1008.9 998.7
СЗ 6 15 км 10/10 1000 м
[Sc]
+20.4 +17.3 82 +23 +23 комфорт 1009.6 999.4
С 4 15 км {дождь} 10/10 1000 м
[Sc]
+19.5 +16.5 83 +22 +22 комфорт 1010.6 1000.4
ЮЗ 1 10 км гроза, ливневой дождь 10/10 1000 м
[Cb cap]
+18.2 +16.8 92 +20 +20 1011.6 1001.3
СЗ 5 10 км в посл. час гроза {дождь} 9/9 1000 м
[Sc]
+19.4 +17.4 88 +21 +22 комфорт 1011.1 1000.9
СЗ 6 15 км {гроза, дождь} 9/9 1000 м
[Cu Sc]
+21.0 +17.6 81 +25 +26 комфорт 1011.1 1000.9 2
З 4 18 км 9/9 1000 м
[Cu Sc]
+22.8 +18.0 74 +28 +29 душно 1011.5 1001.4
З 3 20 км 8/8 1000 м
[Cu Sc]
+23.2 +17.4 70 +29 +30 душно 1011.5 1001.4
СЗ 3 20 км 4/3 1000 м
[Cu Sc Ac trans]
+25.0 +18.1 66 +29 +33 душно 1011.4 1001.3
З 2 20 км 4/1 1000 м
[Cu hum Ci sp]
+25.0 +17.5 63 +29 +32 душно 1011.4 1001.3
З 2 20 км 1/1 1000 м
[Cu Sc Ci sp]
+24.7 +17.6 65 +29 +30 душно 1011.4 1001.3
З 1 20 км 1/1 1000 м
[Cu Sc Ci sp]
+23.8 +18.1 70 +28 +28 душно 1011.7 1001.6 +25.0 2
З 1 20 км 1/1 1000 м
[Sc Ac trans]
+21.4 +18.4 83 +26 +26 душно 1012.5 1002.3
СЗ 2 20 км 6/1 1000 м
[Sc Ac As]
+20.2 +18.1 88 +24 +24 комфорт 1012.8 1002.6
ЮЗ 1 20 км 10/10 1000 м
[Sc]
+19.6 +17.9 90 +23 +23 комфорт 1013.1 1002.8
ЮЗ 1 20 км 10/10 1000 м
[Sc]
+19.4 +17.7 90 +23 +23 комфорт 1013.3 1003.0
ЮЗ 1 20 км 10/10 1000 м
[Sc]
+19.2 +17.7 91 +22 +22 комфорт 1013.5 1003.2
З 1 20 км 8/8 1000 м
[Sc]
+18.6 +17.8 95 +21 +21 комфорт 1013.3 1003.0
З 1 20 км 1/1 1000 м
[Sc]
+18.0 +17.4 96 +19 +19 1013.3 1003.0
З 1 20 км 5/5 1000 м
[Sc]
+17.4 +16.9 97 +18 +18 1013.3 1003.0
З 1 20 км 8/8 1000 м
[Sc]
+17.0 +16.4 96 +18 +18 1013.1 1002.8
ЮВ 1 18 км 9/9 1000 м
[Sc]
+17.9 +17.1 95 +19 +19 1013.0 1002.7
В 1 18 км 9/1 1000 м
[Sc Ac As]
+20.0 +17.5 86 +24 +25 комфорт 1012.9 1002.7
В 1 20 км 8/1 1000 м
[Sc Ac As]
+22.0 +17.4 75 +26 +29 душно 1012.7 1002.5 +17.0 1.8
В 3 20 км 9/4 1000 м
[Sc Ac As]
+22.6 +18.1 76 +28 +30 душно 1012.1 1002.0
ЮВ 2 20 км слаб. дождь 10/10 1000 м
[Sc]
+22.1 +18.3 79 +27 +27 душно 1012.2 1002.0
ЮВ 1 20 км {дождь} 10/6 1000 м
[Sc Ac As]
+22.5 +18.6 79 +28 +30 душно 1012.0 1001.9
СЗ 1 20 км слаб. дождь 10/10 1000 м
[Sc]
+22.0 +19.2 84 +27 +27 душно 1012.4 1002.2
СЗ 3 15 км 10/10 1000 м
[Cu Sc]
+22.6 +20.3 87 +29 +29 очень душно 1012.2 1002.1
З 5 10 км {дождь} 10/10 1000 м
[Sc]
+22.0 +19.3 85 +27 +27 душно 1012.5 1002.3 0.4
З 6 10 км 10/10 1000 м
[Sc]
+18.9 +16.9 88 +20 +20 1013.2 1002.9
З 4 10 км 10/10 1000 м
[Sc]
+18.6 +16.9 90 +19 +19 1013.4 1003.1
З 4 10 км 10/10 1000 м
[Sc]
+18.4 +16.8 90 +19 +19 1013.6 1003.3
З 5 10 км 10/10 1000 м
[Sc]
+18.9 +17.2 90 +20 +20 1013.9 1003.6
СЗ 6 10 км 10/10 1000 м
[Sc]
+18.9 +16.9 88 +20 +20 1014.3 1004.0
СЗ 7 10 км 10/10 1000 м
[Sc]
+18.2 +16.3 89 +18 +18 1014.7 1004.4 +23.0 0.4
СЗ 4 10 км 10/10 1000 м
[Sc]
+17.7 +16.1 90 +17 +17 1015.4 1005.1
СЗ 4 10 км 10/10 1000 м
[Sc]
+17.5 +15.7 89 +17 +17 1016.1 1005.7
СЗ 3 15 км 10/10 1000 м
[Sc]
+17.3 +15.4 89 +17 +17 1016.3 1005.9
СЗ 2 15 км 10/10 1000 м
[Sc]
+17.1 +15.2 89 +17 +17 1016.4 1006.0
З 2 15 км 10/10 1000 м
[Sc]
+17.0 +15.4 90 +17 +17 1016.4 1006.0
З 2 15 км 10/10 1000 м
[Sc]
+16.6 +14.5 87 +17 +17 1016.5 1006.1
СЗ 1 15 км 10/10 1000 м
[Sc]
+16.2 +14.2 88 +17 +17 1016.3 1005.9
З 2 15 км 10/10 1000 м
[Sc]
+15.6 +13.1 85 +15 +15 1016.3 1005.9
ЮЗ 1 10 км слаб. дождь 9/9 1000 м
[Sc]
+15.4 +13.4 88 +16 +16 1016.3 1005.9
З 2 10 км в посл. час дождь 9/9 1000 м
[Sc]
+14.7 +13.5 93 +14 +14 1016.4 1005.9
З 2 10 км в посл. час дождь 9/9 1000 м
[Sc]
+15.2 +13.2 88 +15 +15 1016.7 1006.3
З 2 10 км {дождь} 9/8 1000 м
[Sc Ac trans]
+16.2 +13.0 81 +16 +17 1016.9 1006.5 +14.4 1 1.5
З 2 15 км 8/8 1000 м
[Cu Sc]
+17.2 +13.2 77 +18 +19 1016.7 1006.3
СЗ 1 15 км 3/3 1000 м
[Cu Sc]
+18.4 +14.0 76 +20 +31 1016.3 1006.0
З 2 18 км 6/6 1000 м
[Cu Sc]
+20.4 +15.5 73 +24 +30 комфорт 1016.1 1005.8
Ю 1 18 км 9/9 1000 м
[Cu Sc]
+20.8 +15.4 71 +25 +27 комфорт 1015.8 1005.6
З 1 20 км 10/10 1000 м
[Cu Sc]
+21.4 +16.3 73 +25 +25 комфорт 1015.3 1005.1
СЗ 2 20 км 9/9 1000 м
[Cu Sc]
+21.6 +16.3 72 +25 +27 комфорт 1014.6 1004.4
СЗ 5 {13} 10 км в посл. час гроза {ливн. дождь} 9/9 1000 м
[Cu Sc]
+18.2 +17.3 94 +18 +19 1014.7 1004.4
СЗ 5 10 км слаб. дождь {гроза, ливн. дождь} 10/10 1000 м
[Cu Sc]
+17.4 +16.1 92 +17 +17 1014.9 1004.5
З 3 10 км 10/10 1000 м
[Cu Sc]
+17.1 +16.0 93 +17 +17 1015.0 1004.6
З 4 10 км 9/9 1000 м
[Cu Sc]
+17.4 +16.0 91 +17 +17 1015.0 1004.6
З 4 {13} 10 км {гроза, ливн. дождь} 9/9 1000 м
[Cu Sc]
+17.4 +15.8 90 +17 +17 1015.5 1005.1 +22.1 10
З 3 15 км 8/8 1000 м
[Sc]
+16.5 +15.4 93 +16 +16 1015.5 1005.1
З 2 20 км 4/4 1000 м
[Sc]
+15.4 +14.6 95 +15 +15 1015.5 1005.1
З 2 20 км ясно +14.5 +13.8 96 +14 +14 1016.0 1005.5
ЮЗ 1 20 км 3/3 1000 м
[Sc]
+13.6 +12.9 96 +14 +14 1016.4 1005.9
З 3 20 км 4/4 1000 м
[Sc]
+13.5 +13.0 97 +12 +12 1016.2 1005.7
З 2 20 км 1/0
[Ci fib]
+13.2 +12.5 96 +12 +12 1016.2 1005.7
З 2 20 км ясно +12.8 +12.1 96 +12 +12 1016.4 1005.9
З 3 20 км 1/0
[Ac trans]
+12.6 +12.1 97 +11 +11 1016.3 1005.8
З 3 20 км 1/0
[Ac trans]
+12.4 +11.9 97 +11 +11 1016.3 1005.8
З 3 20 км ясно +12.8 +12.1 96 +11 +12 1016.4 1005.9
З 3 20 км ясно +14.0 +13.0 94 +13 +15 1016.8 1006.3
З 4 20 км 3/3 1000 м
[Cu hum]
+15.4 +13.4 88 +14 +17 1016.8 1006.4 +12.3 9.8
СЗ 4 20 км 3/1 1000 м
[Cu hum]
+16.8 +13.8 82 +16 +21 1016.8 1006.4
СЗ 4 20 км 4/4 1000 м
[Cu hum]
+18.6 +14.4 77 +19 +25 1016.7 1006.4
З 4 20 км 3/3 1000 м
[Cu hum]
+19.6 +13.0 66 +21 +29 комфорт 1016.7 1006.4
СЗ 4 20 км 4/3 1000 м
[Cu hum Ci fib]
+20.9 +13.2 61 +24 +32 комфорт 1013.5 1006.3
З 4 20 км 4/3 1000 м
[Cu hum Ci fib]
+21.9 +13.3 58 +25 +33 комфорт 1016.5 1006.3
СЗ 5 20 км 4/3 1000 м
[Cu hum Ci fib]
+22.6 +13.2 55 +26 +32 жарко 1016.4 1006.2
СЗ 4 20 км 3/1 1000 м
[Cu hum Ci fib]
+23.6 +13.7 54 +26 +34 жарко 1016.3 1006.1
СЗ 3 20 км 5/1 1000 м
[Cu hum Ci fib]
+24.2 +14.8 56 +27 +34 жарко 1016.1 1006.0
СЗ 4 20 км 4/1 1000 м
[Cu hum Ci fib]
+24.6 +15.3 56 +28 +31 душно 1016.1 1006.0
З 3 20 км 3/1 1000 м
[Cu hum Ci fib]
+24.2 +14.4 54 +27 +29 жарко 1016.0 1005.9
З 2 20 км 3/1 1000 м
[Cu hum Ci fib]
+23.8 +14.7 57 +27 +28 жарко 1016.0 1005.9
СЗ 1 20 км 4/0
[Ci fib]
+20.4 +16.0 76 +24 +25 комфорт 1016.0 1005.7 +24.6
З 1 20 км 5/0
[Ac As]
+19.6 +15.0 75 +23 +23 комфорт 1015.8 1005.5
З 2 20 км 5/0
[Ac trans Ci sp]
+18.5 +14.1 76 +20 +20 1015.8 1005.5
ЮЗ 1 20 км 1/0
[Ac trans]
+17.0 +14.2 84 +18 +18 1015.9 1005.5
З 1 20 км ясно +15.5 +12.6 83 +16 +16 1015.9 1005.5
З 1 20 км ясно +14.8 +12.1 84 +15 +15 1015.9 1005.4
З 1 20 км ясно +14.0 +12.3 89 +14 +14 1015.7 1005.2
СЗ 1 20 км ясно +13.2 +11.8 91 +13 +13 1015.5 1005.0
Ю 2 20 км ясно +13.5 +9.3 76 +13 +13 1015.4 1004.9
ЮВ 1 20 км ясно +12.5 +11.3 92 +12 +12 1015.1 1004.6
ЮВ 1 20 км ясно +14.2 +12.8 91 +14 +15 1015.1 1004.6
ЮВ 1 20 км ясно +17.6 +14.0 79 +19 +22 1014.9 1004.6
В 1 20 км ясно +21.2 +13.0 59 +23 +30 комфорт 1014.6 1004.4 +12.3
В 2 20 км ясно +22.8 +13.8 57 +26 +36 жарко 1014.7 1004.5
В 3 20 км 1/1 1000 м
[Cu hum]
+24.4 +13.5 51 +27 +37 жарко 1014.4 1004.3
ЮВ 2 20 км 1/1 1000 м
[Cu hum]
+24.7 +13.3 49 +27 +42 жарко 1013.9 1003.8
В 3 20 км 1/1 1000 м
[Cu hum]
+25.8 +13.4 46 +28 +42 жарко 1013.4 1003.4
В 2 20 км 1/1 1000 м
[Cu hum]
+26.1 +13.6 46 +28 +45 жарко 1013.1 1003.1
ЮВ 2 20 км 1/1 1000 м
[Cu hum]
+26.4 +14.0 46 +29 +44 жарко 1012.6 1002.6
Ю 2 20 км 1/1 1000 м
[Cu hum]
+27.0 +14.0 45 +29 +42 жарко 1012.2 1002.2
С 1 20 км 1/1 1000 м
[Cu hum]
+28.2 +14.9 44 +31 +42 душно 1011.7 1001.7
В 2 20 км ясно +27.6 +14.5 45 +30 +37 жарко 1011.3 1001.3
ЮВ 1 20 км ясно +27.9 +15.9 48 +31 +35 душно 1010.9 1000.9
ЮВ 2 20 км 1/0
[Ac trans]
+27.0 +14.9 47 +30 +31 душно 1010.6 1000.6
ЮВ 1 20 км 1/0
[Ac trans]
+25.2 +15.3 54 +28 +28 жарко 1010.7 1000.7 +28.2
ЮВ 1 20 км 1/0
[Ac trans Ci sp]
+23.0 +15.2 61 +27 +27 душно 1010.7 1000.6
Ю 2 20 км 1/0
[Ac trans Ci sp]
+21.1 +15.3 69 +24 +24 комфорт 1010.9 1000.7
ЮВ 1 20 км ясно +18.9 +15.6 81 +21 +21 комфорт 1011.2 1000.9
ЮВ 2 20 км ясно +18.3 +15.1 82 +19 +19 1011.3 1001.0
В 2 20 км 1/0
[Ci sp]
+17.0 +14.7 86 +17 +17 1011.2 1000.9
ЮВ 2 20 км ясно +16.9 +14.1 84 +17 +17 1011.2 1000.9
ЮВ 1 20 км ясно +16.5 +14.5 88 +17 +17 1011.0 1000.7
ЮВ 2 20 км ясно +16.3 +14.8 91 +16 +16 1010.8 1000.5
В 1 20 км 1/1 1000 м
[Sc]
+16.1 +15.1 94 +17 +17 1010.7 1000.3
СЗ 2 20 км 8/5 1000 м
[Sc Ci sp]
+17.0 +16.0 94 +17 +18 1011.4 1001.1
ЮЗ 1 20 км 1/1 1000 м
[Sc]
+19.3 +15.3 78 +22 +25 комфорт 1011.6 1001.3
З 1 20 км 1/1 1000 м
[Sc]
+22.7 +17.1 71 +28 +33 душно 1011.5 1001.4 +15.9
СЗ 3 20 км 6/0
[Cs]
+24.6 +17.7 65 +29 +36 душно 1011.7 1001.6
З 3 20 км 4/0
[Ac trans Ci fib]
+26.0 +17.1 58 +30 +40 душно 1011.8 1001.8
З 3 20 км 9/1 1000 м
[Cu med, cong Ac trans Ci fib]
+27.6 +18.0 56 +32 +39 очень душно 1012.1 1002.1
З 3 20 км 6/1 1000 м
[Cu hum Ac trans]
+27.3 +17.6 55 +31 +41 душно 1012.0 1002.0
СЗ 2 20 км 4/1 1000 м
[Cu hum Ac trans]
+28.0 +18.4 56 +33 +47 очень душно 1011.7 1001.7
З 3 20 км 5/3 1000 м
[Cu hum Ac As]
+28.8 +18.4 53 +34 +42 очень душно 1011.6 1001.7
СЗ 3 20 км 4/1 1000 м
[Cu hum Ac As]
+29.2 +18.0 51 +34 +42 очень душно 1011.2 1001.3
З 2 20 км 4/1 1000 м
[Cu hum Ac trans]
+30.0 +19.3 53 +36 +44 очень душно 1011.0 1001.1
З 2 20 км 1/1 1000 м
[Cu hum]
+30.2 +19.2 52 +36 +42 очень душно 1010.8 1000.9
СЗ 2 20 км 3/1 1000 м
[Cu hum Ac trans]
+29.8 +18.5 51 +35 +38 очень душно 1010.9 1001.0
СЗ 2 20 км 3/1 1000 м
[Cu hum Ac trans]
+29.2 +19.5 56 +35 +36 очень душно 1010.9 1001.0
СЗ 3 20 км 5/4 1000 м
[Sc Ac trans]
+26.5 +18.2 60 +31 +31 душно 1011.0 1001.0 +30.2
С 2 20 км 8/8 1000 м
[Sc]
+24.4 +19.1 72 +29 +29 душно 1011.6 1001.5
СЗ 1 20 км 9/9 1000 м
[Sc]
+24.4 +17.8 67 +29 +29 душно 1012.2 1002.1
СВ 1 25 км дождь 10/10 1000 м
[Cu Sc]
+22.4 +19.0 81 +28 +28 душно 1012.7 1002.5
СВ 1 20 км в посл. час дождь 9/9 1000 м
[Sc]
+21.8 +18.5 82 +27 +27 душно 1012.8 1002.6
СВ 3 20 км 6/6 1000 м
[Sc]
+20.8 +17.9 83 +25 +25 комфорт 1013.3 1003.1
З 1 20 км дождь 10/10 1000 м
[Sc]
+20.2 +18.1 88 +25 +25 комфорт 1014.0 1003.8
В 2 20 км в посл. час дождь 9/9 600 м
[Sc]
+19.5 +18.1 92 +22 +22 комфорт 1014.2 1003.9
ЮВ 2 20 км в посл. час дождь 10/10 1000 м
[Sc]
+19.6 +18.2 92 +23 +23 комфорт 1014.4 1004.1
ЮВ 2 20 км {дождь} 9/9 1000 м
[Sc]
+19.4 +18.3 93 +22 +22 комфорт 1014.3 1004.0
С 2 20 км 8/8 1000 м
[Sc]
+19.5 +18.3 93 +22 +23 комфорт 1014.7 1004.4
З 1 20 км 9/9 1000 м
[Sc]
+20.8 +19.1 90 +26 +27 душно 1015.0 1004.8
З 1 20 км {дождь} 6/5 1000 м
[Sc Ac trans]
+22.4 +19.4 83 +28 +31 душно 1015.6 1005.4 +19.2 4 4.3
ЮЗ 1 20 км 6/6 1000 м
[Sc]
+24.0 +19.9 78 +29 +34 душно 1015.7 1005.6
З 2 20 км 8/8 1000 м
[Cu Sc]
+25.1 +20.2 74 +31 +34 очень душно 1016.0 1005.9
СЗ 2 20 км 6/6 1000 м
[Cu Sc]
+25.4 +20.0 72 +31 +38 очень душно 1016.2 1006.1
С 2 20 км 3/3 1000 м
[Cu Sc]
+27.0 +19.7 64 +33 +46 очень душно 1016.1 1006.1
С 3 20 км 3/3 1000 м
[Cu med, cong]
+28.2 +20.6 63 +35 +46 очень душно 1016.1 1006.1
С 3 20 км 4/3 1000 м
[Cu med, cong Ci fib]
+29.0 +20.6 61 +36 +46 очень душно 1016.0 1006.0
СВ 2 20 км 4/3 1000 м
[Cu med, cong Ci fib]
+28.9 +19.8 58 +35 +45 очень душно 1015.8 1005.8
СВ 2 20 км 3/3 1000 м
[Cu med, cong]
+29.2 +19.0 54 +35 +42 очень душно 1015.5 1005.5
С 2 20 км 3/3 1000 м
[Cu med, cong]
+30.4 +19.4 52 +36 +41 очень душно 1015.4 1005.5
С 2 20 км 3/3 1000 м
[Cu med, cong]
+30.2 +19.5 53 +36 +39 очень душно 1015.2 1005.3
СЗ 1 20 км 1/1 1000 м
[Cu med, cong]
+30.3 +19.3 52 +36 +37 очень душно 1015.2 1005.3
СЗ 1 20 км ясно +29.1 +20.0 58 +35 +36 очень душно 1015.4 1005.4 +30.4
Местоположение метеостанции Нови-Сад (Сербия): широта 45.33 долгота 19.85 высота над уровнем моря 87 м.
В архиве по умолчанию представлена погода в Нови-Саде за последнюю неделю. Архивные данные за месяц целиком и за предыдущие месяцы, начиная с января 2011 года, Вы можете получить, выбрав интересующий диапазон дат из раскрывающегося списка и нажав кнопку "Найти!".
*Определитесь, кто Вы:
Внимание! Время в таблицах - всемирное. Для получения местного времени необходимо прибавить поправку, которая равна 1 ч.
Некоторые строки с данными для отдельных станций могут быть выделены курсивом. Это означает, что фактические данные отсутствуют по различным причинам, а приведенные значения являются расчетными модельными данными для данного пункта наблюдений.
Смотрите также архив погоды в соседних городах и на ближайших метеорологических станциях:
Партнеры нашего сайта:      
Пояснения к столбцам:
  • Ветер - указаны скорость ветра в м/с - средняя за 10 мин, порывы в срок и между сроками (в фигурных скобках) и направление, откуда дует ветер: С - северный,
  • СВ - северо-восточный, В - восточный, ЮВ - юго-восточный, Ю - южный, ЮЗ - юго-западный, З - западный, СЗ - северо-западный.
  • Видимость - горизонтальная дальность видимости в метрах или километрах. При видимости от 1 до 10 км при отсутствии осадков обычно наблюдается дымка, при ухудшении видимости до 1 км и менее - туман. В сухую погоду видимость может ухудшаться дымом, пылью или мглою.
  • Явления - указаны атмосферные явления, наблюдавшиеся в срок или в последний час перед сроком; фигурными скобками обозначены явления, наблюдавшиеся между сроками (за 1-3 часа до срока); квадратными скобками обозначены град или гололедные отложения с указанием их диаметра в мм.
  • Облачность - указаны через наклонную черту общая и нижняя облачность в баллах и высота нижней границы облаков в метрах; квадратными скобками обозначены формы облаков: Ci - перистые, Cs - перисто-слоистые, Cc - перисто-кучевые, Ac - высококучевые, As - высокослоистые, Sc - слоисто-кучевые, Ns - слоисто-дождевые, Cu - кучевые, Cb - кучево-дождевые. Подробнее классификацию облаков см. в Атласе облаков (PDF).
  • T - Температура воздуха - температура, измеренная на высоте 2 м над землей.
  • Td - Температура точки росы - температура, при понижении до которой содержащийся в воздухе водяной пар достигнет насыщения.
  • f - Относительная влажность воздуха - влажноcть воздуха, измеренная на высоте 2 м над землей.
  • Te - Эффективная температура - температура, которую ощущает одетый по сезону человек в тени. Характеристика душности погоды. При расчете учитывается влияние влажности воздуха и скорости ветра на теплоощущения человека.
  • Tes - Эффективная температура на солнце - температура, которую ощущает человек, с поправкой на солнечный нагрев. Характеристика знойности погоды. Зависит от высоты солнца над горизонтом, облачности и скорости ветра. Ночью, в пасмурную погоду, а также при ветре 12 м/с и более поправка равна нулю.
  • P - Атмосферное давление - приведенное к уровню моря атмосферное давление.
  • Po - Атмосферное давление - измеренное на уровне метеостанции атмосферное давление.
  • Tmin - Минимальная температура - минимум температуры воздуха на высоте 2 м над землей.
  • Tmax - Максимальная температура - максимум температуры воздуха на высоте 2 м над землей.
  • R - Количество осадков - Количество выпавших осадков за период времени, мм. При наведении курсора мыши на число - период времени, за который выпало указанное количество осадков.
  • R24 - Количество осадков - Количество выпавших осадков за 24 часа, мм.
  • S - Снежный покров - Высота снежного покрова, см. При наведении курсора мыши на число - состояние снежного покрова и степень покрытия местности в баллах.